Location: Unspecified
(44.0704°N, 88.6889°W)
Time: 14:26:22
(UTC+01:00)

Okean 3 - Pass Details

Date: 08 October 2020
Orbit: 575 x 602 km, 82.5° (Epoch: 26 October)

Event Time Altitude Azimuth Distance (km) Brightness Sun altitude
Exits shadow 11:22:16 41° 80° (E) 865 4.6 -28.9°
Drops below altitude 10° 11:25:57 10° 22° (NNE) 1,926 6.6 -28.3°
Sets 11:28:13 0° 16° (NNE) 2,827 7.4 -27.9°
